Tri-Cities, TN

10:24 PM EST on December 11, 2019 (GMT -0500)
Tri-Cities Regional Tennessee / Virginia

Weather History for KTRI - October, 2019

Change the Weather History Date:

Wednesday, October 23, 2019

  Actual Average Record
Temperature  
Mean Temperature 51 °F 54 °F  
Max Temperature 64 °F 67 °F 82 °F (1947)
Min Temperature 37 °F 41 °F 24 °F (1997)
Degree Days  
Heating Degree Days 14 11  
Month to date heating degree days 112 184  
Since 1 July heating degree days 112 237  
Cooling Degree Days 0 0  
Month to date cooling degree days 67 9  
Year to date cooling degree days 1452 977  
Moisture  
Dew Point 36 °F    
Average Humidity 60    
Maximum Humidity 92    
Minimum Humidity 27    
Precipitation  
Precipitation 0.00 in 0.06 in 1.58 in (2017)
Month to date precipitation 3.84 1.50  
Year to date precipitation 45.45 33.94  
Snow  
Snow 0.00 in 0.00 in - ()
Month to date snowfall 0.0 0.0  
Since 1 July snowfall 0.0 0.0  
Since 1 September snowfall 0.0 0.0  
Snow Depth 0.00 in    
Sea Level Pressure  
Sea Level Pressure 30.13 in    
Wind  
Wind Speed 3 mph (West)    
Max Wind Speed 13 mph    
Max Gust Speed 17 mph    
Visibility 10 miles    
Events      
T = Trace of Precipitation, MM = Missing Value Source: NWS Daily Summary

Daily Weather History Graph

Daily Weather History Graph

Search for Another Location

Airport or City:

Astronomy

Oct. 23, 2019 Rise Set
Actual Time 7:43 AM EDT 6:43 PM EDT
Civil Twilight 7:17 AM EDT 7:09 PM EDT
Nautical Twilight 6:47 AM EDT 7:39 PM EDT
Astronomical Twilight 6:17 AM EDT 8:09 PM EDT
Moon 2:13 AM EDT (10/23) 4:22 PM EDT (10/23)
Length of Visible Light 11h 51m
Length of Day
10h 59m
Waning Crescent, 27% of the Moon is Illuminated
Oct 23
Waning Crescent
Oct 27
New
Nov 4
First Quarter
Nov 12
Full
Nov 19
Last Quarter

Hourly Weather History & Observations

Time (EDT) Temp. Windchill Dew Point Humidity Pressure Visibility Wind Dir Wind Speed Gust Speed Precip Events Conditions
12:53 AM 45.0 °F - 42.1 °F 90% 30.00 in 10.0 mi Calm Calm - N/A   Clear
1:53 AM 43.0 °F - 39.9 °F 89% 30.01 in 10.0 mi Calm Calm - N/A   Scattered Clouds
2:53 AM 43.0 °F - 39.9 °F 89% 30.03 in 10.0 mi Calm Calm - N/A   Scattered Clouds
3:53 AM 48.9 °F - 39.0 °F 69% 30.04 in 10.0 mi West 4.6 mph - N/A   Overcast
4:53 AM 44.1 °F 41.5 °F 37.9 °F 79% 30.06 in 10.0 mi SW 4.6 mph - N/A   Clear
5:53 AM 42.1 °F - 36.0 °F 79% 30.08 in 10.0 mi Calm Calm - N/A   Clear
6:53 AM 39.9 °F - 36.0 °F 86% 30.10 in 10.0 mi Calm Calm - N/A   Clear
7:53 AM 37.0 °F 34.5 °F 35.1 °F 93% 30.11 in 10.0 mi NNE 3.5 mph - N/A   Clear
8:53 AM 44.1 °F - 39.9 °F 85% 30.14 in 10.0 mi Calm Calm - N/A   Clear
9:53 AM 50.0 °F - 42.1 °F 74% 30.16 in 10.0 mi SW 5.8 mph - N/A   Clear
10:53 AM 55.0 °F - 37.9 °F 53% 30.17 in 10.0 mi West 6.9 mph - N/A   Clear
11:53 AM 57.9 °F - 34.0 °F 41% 30.17 in 10.0 mi Variable 5.8 mph - N/A   Clear
12:53 PM 60.1 °F - 33.1 °F 36% 30.16 in 10.0 mi Variable 5.8 mph - N/A   Clear
1:53 PM 61.0 °F - 33.1 °F 35% 30.16 in 10.0 mi WNW 9.2 mph - N/A   Clear
2:53 PM 62.1 °F - 32.0 °F 32% 30.15 in 10.0 mi West 4.6 mph - N/A   Clear
3:53 PM 63.0 °F - 28.0 °F 27% 30.14 in 10.0 mi Variable 4.6 mph - N/A   Clear
4:53 PM 62.1 °F - 30.9 °F 31% 30.14 in 10.0 mi SSW 4.6 mph - N/A   Clear
5:53 PM 61.0 °F - 32.0 °F 34% 30.14 in 10.0 mi SSW 3.5 mph - N/A   Clear
6:53 PM 57.9 °F - 32.0 °F 37% 30.16 in 10.0 mi Calm Calm - N/A   Clear
7:53 PM 48.9 °F - 36.0 °F 61% 30.19 in 10.0 mi NNE 3.5 mph - N/A   Clear
8:53 PM 46.0 °F - 37.0 °F 71% 30.21 in 10.0 mi Calm Calm - N/A   Clear
9:53 PM 42.1 °F - 37.0 °F 82% 30.21 in 10.0 mi Calm Calm - N/A   Clear
10:53 PM 41.0 °F - 36.0 °F 82% 30.23 in 10.0 mi Calm Calm - N/A   Clear
11:53 PM 39.0 °F - 36.0 °F 89% 30.23 in 10.0 mi Calm Calm - N/A   Clear